To NAV CANADA Home Page Login to a new session Search on AWWS site Feedback and Comments Disclaimer Vers la page française équivalente Tips FAQ What's new on the site To the Forecasts and Observations / NOTAM section To "File a Flight Plan" website Publications and other links Update of the User's profile FIC Telephone Numbers My Weather Data Folder Route Weather Data Regional Weather Data Local Weather Data To the Forecasts and Observations / NOTAM section
Request Generated 09/28/2016 at 10:13:27 UTC . Weather information available at that time is displayed.

METAR/TAF

PANGNIRTUNG/NU    (show WxCam)

METAR CYXP 281000Z 25014KT 12SM -RA OVC012 03/01 A2993 RMK SC8
SLP138=
METAR CYXP 280900Z 24012G20KT 12SM -RA OVC015 03/01 A2993 RMK SC8
CALL OUT SLP138=
METAR CYXP 280800Z 24008KT 12SM -RA OVC015 03/02 A2991 RMK SC8 CALL
OUT SLP132=

*** REMARK        : Forecast period has ended; this was the last TAF issued
*** REMARQUE : La période de prévision est échue; ceci était le dernier TAF qui a été émis
TAF CYXP 271838Z 2719/2722 24012KT P6SM SCT020 BKN210 TEMPO 2719/2722
BKN020 OVC210
RMK NXT FCST WILL BE ISSUED AT 281245Z=
Your time UTC time
Weather data provided by Environment Canada and NAV CANADA